TimeCST,TemperatureF,Dew PointF,Humidity,Sea Level PressureIn,VisibilityMPH,Wind Direction,Wind SpeedMPH,Gust SpeedMPH,PrecipitationIn,Events,Conditions,WindDirDegrees,DateUTC
7:35 AM,19.4,17.6,93,29.86,10.0,WNW,21.9,29.9,N/A,,Clear,300,2012-12-06 13:35:00
7:55 AM,19.4,17.6,93,29.87,10.0,WNW,20.7,26.5,N/A,,Clear,300,2012-12-06 13:55:00
8:15 AM,19.4,15.8,86,29.89,10.0,NW,18.4,24.2,N/A,,Clear,310,2012-12-06 14:15:00
8:35 AM,19.4,15.8,86,29.89,10.0,NW,20.7,24.2,N/A,,Clear,310,2012-12-06 14:35:00
9:15 AM,21.2,17.6,86,29.91,10.0,NW,18.4,23.0,N/A,,Clear,310,2012-12-06 15:15:00
9:35 AM,23.0,17.6,80,29.91,10.0,WNW,21.9,31.1,N/A,,Clear,300,2012-12-06 15:35:00
9:55 AM,23.0,19.4,86,29.92,10.0,NW,21.9,29.9,N/A,,Clear,310,2012-12-06 15:55:00
10:15 AM,23.0,19.4,86,29.93,10.0,NW,17.3,26.5,N/A,,Mostly Cloudy,310,2012-12-06 16:15:00
10:35 AM,24.8,19.4,80,29.94,10.0,NW,12.7,18.4,N/A,,Overcast,310,2012-12-06 16:35:00
10:55 AM,24.8,21.2,86,29.94,10.0,WNW,13.8,17.3,N/A,,Overcast,290,2012-12-06 16:55:00
11:15 AM,24.8,21.2,86,29.94,10.0,WNW,13.8,-,N/A,,Overcast,300,2012-12-06 17:15:00
11:35 AM,26.6,21.2,80,29.94,10.0,WNW,15.0,-,N/A,,Overcast,300,2012-12-06 17:35:00
11:55 AM,26.6,23.0,86,29.94,10.0,WNW,15.0,-,N/A,,Mostly Cloudy,290,2012-12-06 17:55:00
12:15 PM,28.4,23.0,80,29.94,10.0,NW,11.5,-,N/A,,Overcast,310,2012-12-06 18:15:00
12:35 PM,28.4,23.0,80,29.93,10.0,WNW,12.7,-,N/A,,Overcast,300,2012-12-06 18:35:00
12:55 PM,28.4,23.0,80,29.93,10.0,WNW,17.3,20.7,N/A,,Overcast,290,2012-12-06 18:55:00
1:15 PM,28.4,23.0,80,29.92,10.0,WNW,13.8,24.2,N/A,,Overcast,300,2012-12-06 19:15:00
1:35 PM,32.0,23.0,69,29.92,10.0,WNW,13.8,19.6,N/A,,Mostly Cloudy,300,2012-12-06 19:35:00
1:55 PM,32.0,23.0,69,29.92,10.0,WNW,10.4,17.3,N/A,,Partly Cloudy,290,2012-12-06 19:55:00
2:15 PM,32.0,23.0,69,29.92,10.0,WNW,12.7,17.3,N/A,,Scattered Clouds,300,2012-12-06 20:15:00
2:35 PM,30.2,23.0,75,29.93,10.0,WNW,15.0,20.7,N/A,,Scattered Clouds,290,2012-12-06 20:35:00
2:55 PM,30.2,23.0,75,29.93,10.0,WNW,10.4,-,N/A,,Partly Cloudy,290,2012-12-06 20:55:00
3:15 PM,30.2,23.0,75,29.92,10.0,WNW,11.5,17.3,N/A,,Clear,300,2012-12-06 21:15:00
3:35 PM,30.2,23.0,75,29.93,10.0,WNW,9.2,-,N/A,,Clear,290,2012-12-06 21:35:00
3:55 PM,28.4,23.0,80,29.93,10.0,WNW,10.4,-,N/A,,Clear,290,2012-12-06 21:55:00
4:15 PM,28.4,21.2,74,29.93,10.0,West,8.1,-,N/A,,Clear,280,2012-12-06 22:15:00
4:35 PM,28.4,21.2,74,29.94,10.0,West,6.9,-,N/A,,Clear,270,2012-12-06 22:35:00
4:55 PM,26.6,21.2,80,29.95,10.0,West,6.9,-,N/A,,Clear,270,2012-12-06 22:55:00
5:15 PM,26.6,21.2,80,29.95,10.0,WNW,8.1,-,N/A,,Clear,290,2012-12-06 23:15:00
5:35 PM,26.6,21.2,80,29.94,10.0,WNW,6.9,-,N/A,,Clear,290,2012-12-06 23:35:00
5:55 PM,24.8,19.4,80,29.94,10.0,WNW,6.9,-,N/A,,Clear,290,2012-12-06 23:55:00
6:15 PM,23.0,19.4,86,29.93,10.0,WNW,5.8,-,N/A,,Clear,290,2012-12-07 00:15:00
6:35 PM,17.6,15.8,93,29.93,10.0,Calm,Calm,-,N/A,,Clear,0,2012-12-07 00:35:00
6:55 PM,17.6,15.8,93,29.94,10.0,South,3.5,-,N/A,,Clear,180,2012-12-07 00:55:00
7:15 PM,19.4,17.6,93,29.93,10.0,WSW,5.8,-,N/A,,Clear,240,2012-12-07 01:15:00
7:35 PM,19.4,17.6,93,29.93,10.0,WSW,5.8,-,N/A,,Clear,240,2012-12-07 01:35:00
7:55 PM,17.6,15.8,93,29.94,10.0,SW,5.8,-,N/A,,Clear,230,2012-12-07 01:55:00
8:35 PM,15.8,14.0,93,29.95,10.0,NW,5.8,-,N/A,,Clear,310,2012-12-07 02:35:00
8:55 PM,15.8,14.0,93,29.95,10.0,NNW,5.8,-,N/A,,Clear,330,2012-12-07 02:55:00
9:15 PM,17.6,15.8,93,29.95,10.0,NNW,3.5,-,N/A,,Clear,330,2012-12-07 03:15:00
9:35 PM,15.8,15.8,100,29.96,10.0,NNW,4.6,-,N/A,,Clear,340,2012-12-07 03:35:00
9:55 PM,15.8,15.8,100,29.96,10.0,North,4.6,-,N/A,,Clear,10,2012-12-07 03:55:00
10:15 PM,15.8,15.8,100,29.96,10.0,North,4.6,-,N/A,,Clear,10,2012-12-07 04:15:00
10:35 PM,15.8,15.8,100,29.96,10.0,North,4.6,-,N/A,,Clear,360,2012-12-07 04:35:00
10:55 PM,15.8,15.8,100,29.96,10.0,NW,3.5,-,N/A,,Clear,320,2012-12-07 04:55:00
11:15 PM,15.8,14.0,93,29.96,10.0,NW,5.8,-,N/A,,Clear,310,2012-12-07 05:15:00
11:35 PM,17.6,17.6,100,29.97,10.0,NW,4.6,-,N/A,,Clear,310,2012-12-07 05:35:00
11:55 PM,15.8,15.8,100,29.97,10.0,NW,5.8,-,N/A,,Clear,310,2012-12-07 05:55:00